Location: Lynch Observatory
(39.9540°N, 75.1861°W)
Time: 18:27:03
(UTC-04:00)

Hubble Space Telescope - Pass Details

Date: 09 August 2022
Orbit: 532 x 535 km, 28.5° (Epoch: 23 September)

Event Time Altitude Azimuth Distance (km) Brightness Sun altitude
Rises 21:42:14 0° 244° (WSW) 2,666 4.7 -17.0°
Reaches altitude 10° 21:45:11 10° 222° (SW) 1,776 3.4 -17.4°
Enters shadow 21:47:11 16° 193° (SSW) 1,449 2.7 -17.7°
